User: anonymous   Login
Location: Unspecified
(0.0000°N, 0.0000°E)
Time: 16:39:25
(UTC+00:00)
Language:

UHF F/O F4 - Orbit

View from above orbital plane
View from above orbital plane
View from above satellite
View from above satellite

Ground track
Ground track

The orbit data is extracted from the following two-line orbital elements,

1 23467U 95003A   16159.65072879 0.00000000  00000-0  00000-0 0    08
2 23467   9.2797  30.3860 0006630 313.4645  46.4837  1.00270000    01
Epoch (UTC): 07 June 2016 15:37:02
Eccentricity: 0.0006630
inclination: 9.2797°
perigee height: 35759 km
apogee height: 35814 km
right ascension of ascending node: 30.3860°
argument of perigee: 313.4645°
revolutions per day: 1.00270000
mean anomaly at epoch: 46.4837°
orbit number at epoch: 0

The dashed part of the orbit path shows where the satellite is in the earth's shadow,  

DLR